Time,TemperatureF,DewpointF,PressureIn,WindDirection,WindDirectionDegrees,WindSpeedMPH,WindSpeedGustMPH,Humidity,HourlyPrecipIn,Conditions,Clouds,dailyrainin,SoftwareType,DateUTC
2013-03-23 00:00:00,37.5,16.0,30.07,SW,222,0.0,0.0,41,0.00,,,0.00,VWS V14.01,2013-03-23 04:00:00,
2013-03-23 00:02:00,37.5,16.5,30.07,SW,222,0.0,0.0,42,0.00,,,0.00,VWS V14.01,2013-03-23 04:02:00,
2013-03-23 00:07:00,37.3,15.8,30.07,SW,222,0.0,0.0,41,0.00,,,0.00,VWS V14.01,2013-03-23 04:07:00,
2013-03-23 00:10:00,37.3,16.3,30.07,SW,222,0.0,0.0,42,0.00,,,0.00,VWS V14.01,2013-03-23 04:10:00,
2013-03-23 00:12:00,37.3,15.8,30.07,SW,222,0.0,0.0,41,0.00,,,0.00,VWS V14.01,2013-03-23 04:12:00,
2013-03-23 00:17:00,37.5,16.0,30.06,SW,222,0.0,0.0,41,0.00,,,0.00,VWS V14.01,2013-03-23 04:17:00,
2013-03-23 00:20:00,37.5,16.0,30.06,SW,222,0.0,0.0,41,0.00,,,0.00,VWS V14.01,2013-03-23 04:20:00,
2013-03-23 00:22:00,37.5,16.0,30.06,SW,222,0.0,0.0,41,0.00,,,0.00,VWS V14.01,2013-03-23 04:22:00,
2013-03-23 00:27:00,37.5,16.0,30.06,SW,222,0.0,0.0,41,0.00,,,0.00,VWS V14.01,2013-03-23 04:27:00,
2013-03-23 00:30:00,37.5,16.0,30.06,SW,222,0.0,0.0,41,0.00,,,0.00,VWS V14.01,2013-03-23 04:30:00,
2013-03-23 00:32:00,37.5,16.0,30.06,SW,222,0.0,0.0,41,0.00,,,0.00,VWS V14.01,2013-03-23 04:32:00,
2013-03-23 00:37:00,37.5,16.0,30.06,SW,222,0.0,0.0,41,0.00,,,0.00,VWS V14.01,2013-03-23 04:37:00,
2013-03-23 00:40:00,37.5,16.0,30.06,SW,222,0.0,0.0,41,0.00,,,0.00,VWS V14.01,2013-03-23 04:40:00,
2013-03-23 00:42:00,37.5,16.0,30.06,SW,222,0.0,0.0,41,0.00,,,0.00,VWS V14.01,2013-03-23 04:42:00,
2013-03-23 00:47:00,37.5,16.0,30.07,SW,222,0.0,0.0,41,0.00,,,0.00,VWS V14.01,2013-03-23 04:47:00,
2013-03-23 00:50:00,37.5,16.0,30.07,SW,222,0.0,0.0,41,0.00,,,0.00,VWS V14.01,2013-03-23 04:50:00,
2013-03-23 00:52:00,37.5,16.0,30.07,SW,222,0.0,0.0,41,0.00,,,0.00,VWS V14.01,2013-03-23 04:52:00,
2013-03-23 00:57:00,37.5,16.0,30.07,SW,222,0.0,0.0,41,0.00,,,0.00,VWS V14.01,2013-03-23 04:57:00,
2013-03-23 01:00:00,37.5,16.0,30.08,SW,222,0.0,0.0,41,0.00,,,0.00,VWS V14.01,2013-03-23 05:00:00,
2013-03-23 01:02:00,37.5,16.0,30.08,SW,222,0.0,0.0,41,0.00,,,0.00,VWS V14.01,2013-03-23 05:02:00,
2013-03-23 01:07:00,37.5,16.0,30.08,SW,222,0.0,0.0,41,0.00,,,0.00,VWS V14.01,2013-03-23 05:07:00,
2013-03-23 01:10:00,37.5,16.0,30.08,SW,222,0.0,0.0,41,0.00,,,0.00,VWS V14.01,2013-03-23 05:10:00,
2013-03-23 01:12:00,37.5,16.0,30.08,SW,222,0.0,0.0,41,0.00,,,0.00,VWS V14.01,2013-03-23 05:12:00,
2013-03-23 01:17:00,37.3,16.3,30.08,SW,222,0.0,0.0,42,0.00,,,0.00,VWS V14.01,2013-03-23 05:17:00,
2013-03-23 01:20:00,37.3,16.3,30.08,SW,222,0.0,0.0,42,0.00,,,0.00,VWS V14.01,2013-03-23 05:20:00,
2013-03-23 01:22:00,37.3,16.3,30.08,SW,222,0.0,0.0,42,0.00,,,0.00,VWS V14.01,2013-03-23 05:22:00,
2013-03-23 01:27:00,37.3,15.8,30.08,SW,222,0.0,0.0,41,0.00,,,0.00,VWS V14.01,2013-03-23 05:27:00,
2013-03-23 01:30:00,37.3,16.3,30.07,SW,222,1.0,0.0,42,0.00,,,0.00,VWS V14.01,2013-03-23 05:30:00,
2013-03-23 01:32:00,37.3,16.3,30.07,SW,222,0.0,0.0,42,0.00,,,0.00,VWS V14.01,2013-03-23 05:32:00,
2013-03-23 01:37:00,37.3,16.9,30.07,SW,222,0.0,0.0,43,0.00,,,0.00,VWS V14.01,2013-03-23 05:37:00,
2013-03-23 01:40:00,37.3,16.3,30.07,SW,222,0.0,0.0,42,0.00,,,0.00,VWS V14.01,2013-03-23 05:40:00,
2013-03-23 01:42:00,37.3,16.3,30.07,SW,222,0.0,0.0,42,0.00,,,0.00,VWS V14.01,2013-03-23 05:42:00,
2013-03-23 01:47:00,37.3,16.3,30.07,SW,222,0.0,0.0,42,0.00,,,0.00,VWS V14.01,2013-03-23 05:47:00,
2013-03-23 01:50:00,37.3,16.3,30.07,SW,222,0.0,0.0,42,0.00,,,0.00,VWS V14.01,2013-03-23 05:50:00,
2013-03-23 01:52:00,37.3,16.9,30.07,SW,222,0.0,0.0,43,0.00,,,0.00,VWS V14.01,2013-03-23 05:52:00,
2013-03-23 01:57:00,37.2,17.3,30.07,SW,222,0.0,0.0,44,0.00,,,0.00,VWS V14.01,2013-03-23 05:57:00,
2013-03-23 02:00:00,37.2,17.3,30.07,SW,222,0.0,0.0,44,0.00,,,0.00,VWS V14.01,2013-03-23 06:00:00,
2013-03-23 02:02:00,37.2,16.8,30.07,SW,222,0.0,0.0,43,0.00,,,0.00,VWS V14.01,2013-03-23 06:02:00,
2013-03-23 02:07:00,37.2,17.3,30.07,SW,222,0.0,0.0,44,0.00,,,0.00,VWS V14.01,2013-03-23 06:07:00,
2013-03-23 02:10:00,37.2,17.3,30.07,SW,222,0.0,0.0,44,0.00,,,0.00,VWS V14.01,2013-03-23 06:10:00,
2013-03-23 02:12:00,37.2,17.3,30.07,SW,222,0.0,0.0,44,0.00,,,0.00,VWS V14.01,2013-03-23 06:12:00,
2013-03-23 02:17:00,37.2,17.8,30.07,SW,222,0.0,0.0,45,0.00,,,0.00,VWS V14.01,2013-03-23 06:17:00,
2013-03-23 02:20:00,37.2,17.3,30.07,SW,222,0.0,0.0,44,0.00,,,0.00,VWS V14.01,2013-03-23 06:20:00,
2013-03-23 02:22:00,37.0,17.1,30.07,SW,222,0.0,0.0,44,0.00,,,0.00,VWS V14.01,2013-03-23 06:22:00,
2013-03-23 02:27:00,37.0,17.6,30.07,SW,222,0.0,0.0,45,0.00,,,0.00,VWS V14.01,2013-03-23 06:27:00,
2013-03-23 02:30:00,37.0,17.1,30.06,SW,222,0.0,0.0,44,0.00,,,0.00,VWS V14.01,2013-03-23 06:30:00,
2013-03-23 02:32:00,37.0,17.6,30.06,SW,222,0.0,0.0,45,0.00,,,0.00,VWS V14.01,2013-03-23 06:32:00,
2013-03-23 02:42:00,37.2,17.3,30.06,SW,222,1.0,0.0,44,0.00,,,0.00,VWS V14.01,2013-03-23 06:42:00,
2013-03-23 02:47:00,37.2,17.3,30.05,West,275,0.0,0.0,44,0.00,,,0.00,VWS V14.01,2013-03-23 06:47:00,
2013-03-23 02:52:00,37.3,17.4,30.05,West,276,0.0,0.0,44,0.00,,,0.00,VWS V14.01,2013-03-23 06:52:00,
2013-03-23 02:57:00,37.3,17.4,30.05,West,276,0.0,0.0,44,0.00,,,0.00,VWS V14.01,2013-03-23 06:57:00,
2013-03-23 03:02:00,37.3,17.4,30.05,West,276,0.0,0.0,44,0.00,,,0.00,VWS V14.01,2013-03-23 07:02:00,
2013-03-23 03:12:00,37.3,17.4,30.05,West,276,0.0,0.0,44,0.00,,,0.00,VWS V14.01,2013-03-23 07:12:00,
2013-03-23 03:23:00,37.3,18.4,30.05,West,276,0.0,0.0,46,0.00,,,0.00,VWS V14.01,2013-03-23 07:23:00,
2013-03-23 03:43:00,37.0,18.2,30.06,SW,222,0.0,0.0,46,0.00,,,0.00,VWS V14.01,2013-03-23 07:43:00,
2013-03-23 03:55:00,37.2,17.3,30.05,West,276,0.0,0.0,44,0.00,,,0.00,VWS V14.01,2013-03-23 07:55:00,
2013-03-23 04:00:00,37.2,18.3,30.04,West,276,0.0,0.0,46,0.00,,,0.00,VWS V14.01,2013-03-23 08:00:00,
2013-03-23 04:05:00,37.3,17.4,30.05,West,276,0.0,0.0,44,0.00,,,0.00,VWS V14.01,2013-03-23 08:05:00,
2013-03-23 04:08:00,37.2,18.3,30.04,West,276,0.0,0.0,46,0.00,,,0.00,VWS V14.01,2013-03-23 08:08:00,
2013-03-23 04:13:00,37.3,17.4,30.05,West,276,0.0,0.0,44,0.00,,,0.00,VWS V14.01,2013-03-23 08:13:00,
2013-03-23 04:23:00,37.3,17.9,30.05,West,276,0.0,0.0,45,0.00,,,0.00,VWS V14.01,2013-03-23 08:23:00,
2013-03-23 04:33:00,37.2,18.3,30.05,West,276,0.0,0.0,46,0.00,,,0.00,VWS V14.01,2013-03-23 08:33:00,
2013-03-23 04:38:00,37.2,18.3,30.05,West,276,0.0,0.0,46,0.00,,,0.00,VWS V14.01,2013-03-23 08:38:00,
2013-03-23 04:40:00,37.3,18.4,30.03,West,277,0.0,0.0,46,0.00,,,0.00,VWS V14.01,2013-03-23 08:40:00,
2013-03-23 04:43:00,37.2,18.3,30.05,West,276,0.0,0.0,46,0.00,,,0.00,VWS V14.01,2013-03-23 08:43:00,
2013-03-23 04:48:00,37.2,18.3,30.05,West,276,0.0,0.0,46,0.00,,,0.00,VWS V14.01,2013-03-23 08:48:00,
2013-03-23 04:50:00,37.3,18.4,30.04,West,277,0.0,0.0,46,0.00,,,0.00,VWS V14.01,2013-03-23 08:50:00,
2013-03-23 04:53:00,37.2,18.8,30.04,West,276,0.0,0.0,47,0.00,,,0.00,VWS V14.01,2013-03-23 08:53:00,
2013-03-23 04:58:00,37.2,18.3,30.04,West,276,0.0,0.0,46,0.00,,,0.00,VWS V14.01,2013-03-23 08:58:00,
2013-03-23 05:03:00,37.2,18.3,30.04,West,276,0.0,0.0,46,0.00,,,0.00,VWS V14.01,2013-03-23 09:03:00,
2013-03-23 05:08:00,37.2,18.3,30.04,West,276,0.0,0.0,46,0.00,,,0.00,VWS V14.01,2013-03-23 09:08:00,
2013-03-23 05:15:00,37.2,18.3,30.04,West,277,0.0,0.0,46,0.00,,,0.00,VWS V14.01,2013-03-23 09:15:00,
2013-03-23 05:23:00,37.3,18.9,30.04,West,277,0.0,0.0,47,0.00,,,0.00,VWS V14.01,2013-03-23 09:23:00,
2013-03-23 05:28:00,37.3,18.9,30.04,West,277,0.0,0.0,47,0.00,,,0.00,VWS V14.01,2013-03-23 09:28:00,
2013-03-23 05:33:00,37.3,18.9,30.04,West,277,0.0,0.0,47,0.00,,,0.00,VWS V14.01,2013-03-23 09:33:00,
2013-03-23 05:38:00,37.3,18.4,30.03,West,277,0.0,0.0,46,0.00,,,0.00,VWS V14.01,2013-03-23 09:38:00,
2013-03-23 05:43:00,37.3,18.4,30.03,West,277,0.0,0.0,46,0.00,,,0.00,VWS V14.01,2013-03-23 09:43:00,
2013-03-23 05:48:00,37.3,17.9,30.03,West,277,0.0,0.0,45,0.00,,,0.00,VWS V14.01,2013-03-23 09:48:00,
2013-03-23 05:53:00,37.3,18.4,30.04,West,277,0.0,0.0,46,0.00,,,0.00,VWS V14.01,2013-03-23 09:53:00,
2013-03-23 05:58:00,37.3,18.4,30.04,West,277,0.0,0.0,46,0.00,,,0.00,VWS V14.01,2013-03-23 09:58:00,
2013-03-23 06:03:00,37.5,18.6,30.04,West,277,0.0,0.0,46,0.00,,,0.00,VWS V14.01,2013-03-23 10:03:00,
2013-03-23 06:09:00,37.5,18.6,30.04,West,277,0.0,0.0,46,0.00,,,0.00,VWS V14.01,2013-03-23 10:09:00,
2013-03-23 06:14:00,37.5,18.1,30.04,West,277,0.0,0.0,45,0.00,,,0.00,VWS V14.01,2013-03-23 10:14:00,
2013-03-23 06:19:00,37.6,18.2,30.04,West,278,0.0,0.0,45,0.00,,,0.00,VWS V14.01,2013-03-23 10:19:00,
2013-03-23 06:24:00,37.6,18.7,30.03,West,277,0.0,0.0,46,0.00,,,0.00,VWS V14.01,2013-03-23 10:24:00,
2013-03-23 06:35:00,37.6,18.2,30.04,West,281,0.0,0.0,45,0.00,,,0.00,VWS V14.01,2013-03-23 10:35:00,
2013-03-23 06:44:00,37.8,17.9,30.04,West,281,0.0,0.0,44,0.00,,,0.00,VWS V14.01,2013-03-23 10:44:00,
2013-03-23 06:49:00,37.8,18.4,30.04,West,281,0.0,0.0,45,0.00,,,0.00,VWS V14.01,2013-03-23 10:49:00,
2013-03-23 06:54:00,37.8,17.9,30.05,West,281,0.0,0.0,44,0.00,,,0.00,VWS V14.01,2013-03-23 10:54:00,
2013-03-23 06:59:00,37.8,17.3,30.05,West,281,0.0,0.0,43,0.00,,,0.00,VWS V14.01,2013-03-23 10:59:00,
2013-03-23 07:04:00,37.8,17.9,30.05,West,281,0.0,0.0,44,0.00,,,0.00,VWS V14.01,2013-03-23 11:04:00,
2013-03-23 07:09:00,37.8,17.9,30.06,West,281,0.0,0.0,44,0.00,,,0.00,VWS V14.01,2013-03-23 11:09:00,
2013-03-23 07:14:00,37.8,17.9,30.06,West,281,0.0,0.0,44,0.00,,,0.00,VWS V14.01,2013-03-23 11:14:00,
2013-03-23 07:19:00,37.8,17.3,30.06,West,281,0.0,0.0,43,0.00,,,0.00,VWS V14.01,2013-03-23 11:19:00,
2013-03-23 07:24:00,37.8,18.9,30.06,WNW,286,0.0,0.0,46,0.00,,,0.00,VWS V14.01,2013-03-23 11:24:00,
2013-03-23 07:29:00,37.8,19.4,30.06,WNW,286,0.0,0.0,47,0.00,,,0.00,VWS V14.01,2013-03-23 11:29:00,
2013-03-23 07:34:00,37.8,18.9,30.06,WNW,287,0.0,0.0,46,0.00,,,0.00,VWS V14.01,2013-03-23 11:34:00,
2013-03-23 07:39:00,37.8,18.9,30.07,WNW,287,0.0,0.0,46,0.00,,,0.00,VWS V14.01,2013-03-23 11:39:00,
2013-03-23 07:44:00,37.8,18.4,30.07,North,355,0.0,0.0,45,0.00,,,0.00,VWS V14.01,2013-03-23 11:44:00,
2013-03-23 07:49:00,37.8,18.9,30.07,North,355,0.0,0.0,46,0.00,,,0.00,VWS V14.01,2013-03-23 11:49:00,
2013-03-23 07:54:00,37.8,20.8,30.07,NNE,20,0.0,0.0,50,0.00,,,0.00,VWS V14.01,2013-03-23 11:54:00,
2013-03-23 07:59:00,37.6,20.2,30.07,NNE,28,0.0,0.0,49,0.00,,,0.00,VWS V14.01,2013-03-23 11:59:00,
2013-03-23 08:04:00,37.5,20.1,30.07,NNE,28,0.0,0.0,49,0.00,,,0.00,VWS V14.01,2013-03-23 12:04:00,
2013-03-23 08:09:00,37.5,20.6,30.07,NNE,29,2.0,0.0,50,0.00,,,0.00,VWS V14.01,2013-03-23 12:09:00,
2013-03-23 08:14:00,37.5,20.6,30.07,ENE,59,1.0,0.0,50,0.00,,,0.00,VWS V14.01,2013-03-23 12:14:00,
2013-03-23 08:19:00,37.5,20.6,30.07,ENE,57,0.0,0.0,50,0.00,,,0.00,VWS V14.01,2013-03-23 12:19:00,
2013-03-23 08:24:00,37.5,21.5,30.07,ENE,57,0.0,0.0,52,0.00,,,0.00,VWS V14.01,2013-03-23 12:24:00,
2013-03-23 08:29:00,37.5,22.4,30.07,ENE,58,1.0,0.0,54,0.00,,,0.00,VWS V14.01,2013-03-23 12:29:00,
2013-03-23 08:34:00,37.3,22.6,30.07,ENE,62,0.0,0.0,55,0.00,,,0.00,VWS V14.01,2013-03-23 12:34:00,
2013-03-23 08:39:00,37.3,22.6,30.08,ENE,62,0.0,0.0,55,0.00,,,0.00,VWS V14.01,2013-03-23 12:39:00,
2013-03-23 08:44:00,37.3,22.6,30.08,ENE,62,0.0,0.0,55,0.00,,,0.00,VWS V14.01,2013-03-23 12:44:00,
2013-03-23 08:49:00,37.3,22.6,30.08,ENE,62,1.0,0.0,55,0.00,,,0.00,VWS V14.01,2013-03-23 12:49:00,
2013-03-23 08:54:00,37.3,23.1,30.08,ENE,62,0.0,0.0,56,0.00,,,0.00,VWS V14.01,2013-03-23 12:54:00,
2013-03-23 08:59:00,37.3,22.6,30.08,ENE,62,1.0,0.0,55,0.00,,,0.00,VWS V14.01,2013-03-23 12:59:00,
2013-03-23 09:04:00,37.5,22.8,30.08,ENE,62,0.0,0.0,55,0.00,,,0.00,VWS V14.01,2013-03-23 13:04:00,
2013-03-23 09:09:00,37.6,22.5,30.08,ENE,62,1.0,0.0,54,0.00,,,0.00,VWS V14.01,2013-03-23 13:09:00,
2013-03-23 09:14:00,37.9,22.3,30.08,ENE,78,0.0,0.0,53,0.00,,,0.00,VWS V14.01,2013-03-23 13:14:00,
2013-03-23 09:19:00,38.0,22.9,30.08,ENE,77,0.0,0.0,54,0.00,,,0.00,VWS V14.01,2013-03-23 13:19:00,
2013-03-23 09:24:00,38.2,22.1,30.08,ENE,77,1.0,0.0,52,0.00,,,0.00,VWS V14.01,2013-03-23 13:24:00,
2013-03-23 09:29:00,38.3,22.2,30.08,ENE,77,2.0,0.0,52,0.00,,,0.00,VWS V14.01,2013-03-23 13:29:00,
2013-03-23 09:34:00,38.5,22.4,30.08,ENE,77,0.0,0.0,52,0.00,,,0.00,VWS V14.01,2013-03-23 13:34:00,
2013-03-23 09:39:00,38.5,21.5,30.08,ENE,76,0.0,0.0,50,0.00,,,0.00,VWS V14.01,2013-03-23 13:39:00,
2013-03-23 09:44:00,38.6,22.5,30.08,ENE,76,1.0,0.0,52,0.00,,,0.00,VWS V14.01,2013-03-23 13:44:00,
2013-03-23 09:49:00,38.9,22.8,30.08,ENE,76,1.0,0.0,52,0.00,,,0.00,VWS V14.01,2013-03-23 13:49:00,
2013-03-23 09:54:00,39.1,22.0,30.08,ENE,59,2.0,0.0,50,0.00,,,0.00,VWS V14.01,2013-03-23 13:54:00,
2013-03-23 09:59:00,39.1,22.0,30.08,ENE,61,0.0,0.0,50,0.00,,,0.00,VWS V14.01,2013-03-23 13:59:00,
2013-03-23 10:04:00,39.2,21.7,30.08,ENE,61,0.0,0.0,49,0.00,,,0.00,VWS V14.01,2013-03-23 14:04:00,
2013-03-23 10:09:00,39.5,21.9,30.08,ENE,61,0.0,0.0,49,0.00,,,0.00,VWS V14.01,2013-03-23 14:09:00,
2013-03-23 10:14:00,39.8,21.7,30.08,ENE,61,1.0,0.0,48,0.00,,,0.00,VWS V14.01,2013-03-23 14:14:00,
2013-03-23 10:19:00,39.9,22.3,30.08,ENE,59,1.0,0.0,49,0.00,,,0.00,VWS V14.01,2013-03-23 14:19:00,
2013-03-23 10:24:00,40.2,21.6,30.08,ENE,59,1.0,0.0,47,0.00,,,0.00,VWS V14.01,2013-03-23 14:24:00,
2013-03-23 10:29:00,40.5,21.4,30.08,NNE,25,0.0,0.0,46,0.00,,,0.00,VWS V14.01,2013-03-23 14:29:00,
2013-03-23 10:34:00,40.8,21.1,30.08,NNE,32,3.0,0.0,45,0.00,,,0.00,VWS V14.01,2013-03-23 14:34:00,
2013-03-23 10:39:00,40.9,21.2,30.08,ENE,57,2.0,0.0,45,0.00,,,0.00,VWS V14.01,2013-03-23 14:39:00,
2013-03-23 10:44:00,41.1,20.3,30.08,NE,55,2.0,0.0,43,0.00,,,0.00,VWS V14.01,2013-03-23 14:44:00,
2013-03-23 10:49:00,41.3,21.0,30.08,NNE,22,4.0,0.0,44,0.00,,,0.00,VWS V14.01,2013-03-23 14:49:00,
2013-03-23 10:55:00,41.5,20.7,30.08,ENE,65,3.0,0.0,43,0.00,,,0.00,VWS V14.01,2013-03-23 14:55:00,
2013-03-23 11:00:00,41.5,19.6,30.08,NNE,29,5.0,0.0,41,0.00,,,0.00,VWS V14.01,2013-03-23 15:00:00,
2013-03-23 11:05:00,41.6,20.2,30.08,NE,50,3.0,0.0,42,0.00,,,0.00,VWS V14.01,2013-03-23 15:05:00,
2013-03-23 11:10:00,41.8,19.8,30.08,ENE,63,1.0,0.0,41,0.00,,,0.00,VWS V14.01,2013-03-23 15:10:00,
2013-03-23 11:15:00,42.1,21.2,30.08,NE,44,1.0,0.0,43,0.00,,,0.00,VWS V14.01,2013-03-23 15:15:00,
2013-03-23 11:20:00,42.3,20.3,30.07,NE,55,2.0,0.0,41,0.00,,,0.00,VWS V14.01,2013-03-23 15:20:00,
2013-03-23 11:25:00,42.3,20.3,30.07,ESE,102,2.0,0.0,41,0.00,,,0.00,VWS V14.01,2013-03-23 15:25:00,
2013-03-23 11:30:00,42.5,20.5,30.07,East,88,0.0,0.0,41,0.00,,,0.00,VWS V14.01,2013-03-23 15:30:00,
2013-03-23 11:35:00,42.9,19.7,30.07,East,94,6.0,0.0,39,0.00,,,0.00,VWS V14.01,2013-03-23 15:35:00,
2013-03-23 11:40:00,43.1,19.8,30.07,ENE,71,0.0,0.0,39,0.00,,,0.00,VWS V14.01,2013-03-23 15:40:00,
2013-03-23 11:45:00,43.6,20.9,30.07,NE,45,3.0,0.0,40,0.00,,,0.00,VWS V14.01,2013-03-23 15:45:00,
2013-03-23 11:50:00,44.1,20.1,30.06,East,83,3.0,0.0,38,0.00,,,0.00,VWS V14.01,2013-03-23 15:50:00,
2013-03-23 11:55:00,44.6,20.6,30.06,ESE,105,0.0,0.0,38,0.00,,,0.00,VWS V14.01,2013-03-23 15:55:00,
2013-03-23 12:00:00,44.9,20.2,30.06,ENE,65,3.0,0.0,37,0.00,,,0.00,VWS V14.01,2013-03-23 16:00:00,
2013-03-23 12:05:00,45.2,20.5,30.06,ENE,65,2.0,0.0,37,0.00,,,0.00,VWS V14.01,2013-03-23 16:05:00,
2013-03-23 12:10:00,46.0,21.2,30.06,NE,51,3.0,0.0,37,0.00,,,0.00,VWS V14.01,2013-03-23 16:10:00,
2013-03-23 12:15:00,46.4,20.9,30.06,East,86,0.0,0.0,36,0.00,,,0.00,VWS V14.01,2013-03-23 16:15:00,
2013-03-23 12:20:00,47.1,22.2,30.06,ESE,120,3.0,0.0,37,0.00,,,0.00,VWS V14.01,2013-03-23 16:20:00,
2013-03-23 12:25:00,46.8,21.9,30.06,ESE,121,3.0,0.0,37,0.00,,,0.00,VWS V14.01,2013-03-23 16:25:00,
2013-03-23 12:30:00,46.8,21.9,30.06,ENE,61,4.0,0.0,37,0.00,,,0.00,VWS V14.01,2013-03-23 16:30:00,
2013-03-23 12:35:00,46.7,21.8,30.06,NE,45,2.0,0.0,37,0.00,,,0.00,VWS V14.01,2013-03-23 16:35:00,
2013-03-23 12:40:00,47.3,21.7,30.06,ENE,61,0.0,0.0,36,0.00,,,0.00,VWS V14.01,2013-03-23 16:40:00,
2013-03-23 12:45:00,47.9,22.2,30.06,NE,41,0.0,0.0,36,0.00,,,0.00,VWS V14.01,2013-03-23 16:45:00,
2013-03-23 12:50:00,48.3,21.9,30.06,NNE,29,2.0,0.0,35,0.00,,,0.00,VWS V14.01,2013-03-23 16:50:00,
2013-03-23 12:55:00,48.8,21.7,30.06,NE,50,0.0,0.0,34,0.00,,,0.00,VWS V14.01,2013-03-23 16:55:00,
2013-03-23 13:00:00,48.6,21.5,30.06,East,89,2.0,0.0,34,0.00,,,0.00,VWS V14.01,2013-03-23 17:00:00,
2013-03-23 13:05:00,49.4,22.9,30.05,SE,136,4.0,0.0,35,0.00,,,0.00,VWS V14.01,2013-03-23 17:05:00,
2013-03-23 13:10:00,49.5,23.7,30.05,East,85,3.0,0.0,36,0.00,,,0.00,VWS V14.01,2013-03-23 17:10:00,
2013-03-23 13:15:00,49.1,24.6,30.05,East,90,0.0,0.0,38,0.00,,,0.00,VWS V14.01,2013-03-23 17:15:00,
2013-03-23 13:20:00,49.4,23.6,30.05,North,350,1.0,0.0,36,0.00,,,0.00,VWS V14.01,2013-03-23 17:20:00,
2013-03-23 13:25:00,49.5,22.3,30.05,ENE,76,0.0,0.0,34,0.00,,,0.00,VWS V14.01,2013-03-23 17:25:00,
2013-03-23 13:30:00,49.6,21.7,30.05,East,87,6.0,0.0,33,0.00,,,0.00,VWS V14.01,2013-03-23 17:30:00,
2013-03-23 13:35:00,49.8,22.6,30.05,NE,51,5.0,0.0,34,0.00,,,0.00,VWS V14.01,2013-03-23 17:35:00,
2013-03-23 13:40:00,49.9,23.4,30.05,NW,309,2.0,0.0,35,0.00,,,0.00,VWS V14.01,2013-03-23 17:40:00,
2013-03-23 13:45:00,50.4,22.4,30.05,NNE,30,3.0,0.0,33,0.00,,,0.00,VWS V14.01,2013-03-23 17:45:00,
2013-03-23 13:50:00,50.2,22.2,30.05,NW,304,1.0,0.0,33,0.00,,,0.00,VWS V14.01,2013-03-23 17:50:00,
2013-03-23 13:55:00,50.8,23.5,30.05,ENE,58,3.0,0.0,34,0.00,,,0.00,VWS V14.01,2013-03-23 17:55:00,
2013-03-23 14:00:00,51.1,25.1,30.05,East,82,3.0,0.0,36,0.00,,,0.00,VWS V14.01,2013-03-23 18:00:00,
2013-03-23 14:05:00,50.7,24.1,30.05,ENE,68,4.0,0.0,35,0.00,,,0.00,VWS V14.01,2013-03-23 18:05:00,
2013-03-23 14:10:00,50.7,22.7,30.05,East,80,6.0,0.0,33,0.00,,,0.00,VWS V14.01,2013-03-23 18:10:00,
2013-03-23 14:15:00,50.1,22.8,30.05,ESE,117,0.0,0.0,34,0.00,,,0.00,VWS V14.01,2013-03-23 18:15:00,
2013-03-23 14:20:00,50.4,20.9,30.04,ENE,74,2.0,0.0,31,0.00,,,0.00,VWS V14.01,2013-03-23 18:20:00,
2013-03-23 14:25:00,50.1,21.4,30.04,NNE,30,5.0,0.0,32,0.00,,,0.00,VWS V14.01,2013-03-23 18:25:00,
2013-03-23 14:30:00,50.5,21.8,30.04,NE,53,0.0,0.0,32,0.00,,,0.00,VWS V14.01,2013-03-23 18:30:00,
2013-03-23 14:35:00,50.8,20.5,30.02,NNE,25,3.0,0.0,30,0.00,,,0.00,VWS V14.01,2013-03-23 18:35:00,
2013-03-23 14:40:00,51.0,21.5,30.02,NNE,13,2.0,0.0,31,0.00,,,0.00,VWS V14.01,2013-03-23 18:40:00,
2013-03-23 14:45:00,50.5,19.5,30.02,NE,40,3.0,0.0,29,0.00,,,0.00,VWS V14.01,2013-03-23 18:45:00,
2013-03-23 14:50:00,51.1,20.0,30.02,ENE,69,3.0,0.0,29,0.00,,,0.00,VWS V14.01,2013-03-23 18:50:00,
2013-03-23 14:55:00,51.0,19.9,30.02,NE,37,3.0,0.0,29,0.00,,,0.00,VWS V14.01,2013-03-23 18:55:00,
2013-03-23 15:00:00,50.7,21.2,30.02,ENE,74,5.0,0.0,31,0.00,,,0.00,VWS V14.01,2013-03-23 19:00:00,
2013-03-23 15:05:00,51.3,20.9,30.02,ENE,60,3.0,0.0,30,0.00,,,0.00,VWS V14.01,2013-03-23 19:05:00,
2013-03-23 15:10:00,51.3,21.7,30.02,North,360,2.0,0.0,31,0.00,,,0.00,VWS V14.01,2013-03-23 19:10:00,
2013-03-23 15:15:00,51.3,19.3,30.02,NNE,14,2.0,0.0,28,0.00,,,0.00,VWS V14.01,2013-03-23 19:15:00,
2013-03-23 15:20:00,51.4,18.6,30.01,East,80,5.0,0.0,27,0.00,,,0.00,VWS V14.01,2013-03-23 19:20:00,
2013-03-23 15:25:00,51.3,20.1,30.01,East,88,1.0,0.0,29,0.00,,,0.00,VWS V14.01,2013-03-23 19:25:00,
2013-03-23 15:30:00,51.3,23.9,30.01,East,85,2.0,0.0,34,0.00,,,0.00,VWS V14.01,2013-03-23 19:30:00,
2013-03-23 15:35:00,51.3,21.7,30.01,NNW,336,3.0,0.0,31,0.00,,,0.00,VWS V14.01,2013-03-23 19:35:00,
2013-03-23 15:40:00,51.1,20.8,30.01,ENE,66,2.0,0.0,30,0.00,,,0.00,VWS V14.01,2013-03-23 19:40:00,
2013-03-23 15:46:00,51.3,20.9,30.01,North,355,4.0,0.0,30,0.00,,,0.00,VWS V14.01,2013-03-23 19:46:00,
2013-03-23 15:51:00,51.6,22.0,30.00,NE,38,5.0,0.0,31,0.00,,,0.00,VWS V14.01,2013-03-23 19:51:00,
2013-03-23 15:56:00,51.4,22.5,30.00,East,81,5.0,0.0,32,0.00,,,0.00,VWS V14.01,2013-03-23 19:56:00,
2013-03-23 16:01:00,51.4,23.3,30.00,NE,38,3.0,0.0,33,0.00,,,0.00,VWS V14.01,2013-03-23 20:01:00,
2013-03-23 16:06:00,51.7,21.3,29.99,NE,34,3.0,0.0,30,0.00,,,0.00,VWS V14.01,2013-03-23 20:06:00,
2013-03-23 16:11:00,51.6,22.7,29.99,NNE,32,2.0,0.0,32,0.00,,,0.00,VWS V14.01,2013-03-23 20:11:00,
2013-03-23 16:16:00,51.6,22.0,29.99,NNE,17,7.0,0.0,31,0.00,,,0.00,VWS V14.01,2013-03-23 20:16:00,
2013-03-23 16:21:00,51.9,23.0,29.99,East,82,2.0,0.0,32,0.00,,,0.00,VWS V14.01,2013-03-23 20:21:00,
2013-03-23 16:26:00,52.2,22.5,29.99,NNE,32,1.0,0.0,31,0.00,,,0.00,VWS V14.01,2013-03-23 20:26:00,
2013-03-23 16:31:00,52.2,22.5,29.99,North,11,3.0,0.0,31,0.00,,,0.00,VWS V14.01,2013-03-23 20:31:00,
2013-03-23 16:41:00,51.9,23.0,29.99,NE,41,3.0,0.0,32,0.00,,,0.00,VWS V14.01,2013-03-23 20:41:00,
2013-03-23 16:46:00,52.2,24.0,29.99,NE,50,4.0,0.0,33,0.00,,,0.00,VWS V14.01,2013-03-23 20:46:00,
2013-03-23 16:51:00,52.0,24.5,29.99,NE,44,3.0,0.0,34,0.00,,,0.00,VWS V14.01,2013-03-23 20:51:00,
2013-03-23 16:57:00,51.9,23.0,29.99,ENE,76,5.0,0.0,32,0.00,,,0.00,VWS V14.01,2013-03-23 20:57:00,
2013-03-23 17:05:00,51.3,23.9,29.98,NE,55,2.0,0.0,34,0.00,,,0.00,VWS V14.01,2013-03-23 21:05:00,
2013-03-23 17:11:00,51.3,24.6,29.98,East,80,3.0,0.0,35,0.00,,,0.00,VWS V14.01,2013-03-23 21:11:00,
2013-03-23 17:16:00,51.3,24.6,29.98,ENE,71,5.0,0.0,35,0.00,,,0.00,VWS V14.01,2013-03-23 21:16:00,
2013-03-23 17:21:00,51.3,24.6,29.97,NNE,32,0.0,0.0,35,0.00,,,0.00,VWS V14.01,2013-03-23 21:21:00,
2013-03-23 17:26:00,51.1,25.8,29.97,ENE,63,5.0,0.0,37,0.00,,,0.00,VWS V14.01,2013-03-23 21:26:00,
2013-03-23 17:32:00,51.0,25.7,29.97,NE,55,2.0,0.0,37,0.00,,,0.00,VWS V14.01,2013-03-23 21:32:00,
2013-03-23 17:37:00,51.0,25.7,29.97,ENE,69,3.0,0.0,37,0.00,,,0.00,VWS V14.01,2013-03-23 21:37:00,
2013-03-23 17:42:00,51.1,25.1,29.97,NNE,17,0.0,0.0,36,0.00,,,0.00,VWS V14.01,2013-03-23 21:42:00,
2013-03-23 17:47:00,51.6,25.5,29.97,NE,43,4.0,0.0,36,0.00,,,0.00,VWS V14.01,2013-03-23 21:47:00,
2013-03-23 17:52:00,51.6,26.8,29.97,ENE,76,4.0,0.0,38,0.00,,,0.00,VWS V14.01,2013-03-23 21:52:00,
2013-03-23 17:57:00,51.3,25.3,29.97,NE,55,2.0,0.0,36,0.00,,,0.00,VWS V14.01,2013-03-23 21:57:00,
2013-03-23 18:02:00,51.3,25.3,29.97,ENE,63,0.0,0.0,36,0.00,,,0.00,VWS V14.01,2013-03-23 22:02:00,
2013-03-23 18:07:00,51.3,24.6,29.97,East,80,5.0,0.0,35,0.00,,,0.00,VWS V14.01,2013-03-23 22:07:00,
2013-03-23 18:12:00,51.1,25.1,29.97,East,81,0.0,0.0,36,0.00,,,0.00,VWS V14.01,2013-03-23 22:12:00,
2013-03-23 18:17:00,50.8,25.5,29.97,ENE,62,2.0,0.0,37,0.00,,,0.00,VWS V14.01,2013-03-23 22:17:00,
2013-03-23 18:22:00,50.7,25.4,29.97,NE,44,2.0,0.0,37,0.00,,,0.00,VWS V14.01,2013-03-23 22:22:00,
2013-03-23 18:27:00,50.7,25.4,29.97,ENE,68,3.0,0.0,37,0.00,,,0.00,VWS V14.01,2013-03-23 22:27:00,
2013-03-23 18:32:00,50.5,25.9,29.97,ENE,61,1.0,0.0,38,0.00,,,0.00,VWS V14.01,2013-03-23 22:32:00,
2013-03-23 18:37:00,50.4,25.1,29.96,ENE,63,2.0,0.0,37,0.00,,,0.00,VWS V14.01,2013-03-23 22:37:00,
2013-03-23 18:42:00,50.2,24.3,29.96,NE,34,4.0,0.0,36,0.00,,,0.00,VWS V14.01,2013-03-23 22:42:00,
2013-03-23 18:47:00,50.2,24.3,29.96,ENE,69,3.0,0.0,36,0.00,,,0.00,VWS V14.01,2013-03-23 22:47:00,
2013-03-23 18:52:00,50.1,24.9,29.96,East,80,3.0,0.0,37,0.00,,,0.00,VWS V14.01,2013-03-23 22:52:00,
2013-03-23 18:57:00,50.2,25.0,29.96,NE,38,1.0,0.0,37,0.00,,,0.00,VWS V14.01,2013-03-23 22:57:00,
2013-03-23 19:02:00,50.1,24.9,29.96,ENE,67,2.0,0.0,37,0.00,,,0.00,VWS V14.01,2013-03-23 23:02:00,
2013-03-23 19:07:00,49.9,24.7,29.95,East,80,2.0,0.0,37,0.00,,,0.00,VWS V14.01,2013-03-23 23:07:00,
2013-03-23 19:12:00,49.8,25.2,29.95,ENE,67,1.0,0.0,38,0.00,,,0.00,VWS V14.01,2013-03-23 23:12:00,
2013-03-23 19:17:00,49.6,24.4,29.95,ENE,70,4.0,0.0,37,0.00,,,0.00,VWS V14.01,2013-03-23 23:17:00,
2013-03-23 19:22:00,49.6,24.4,29.96,ENE,70,1.0,0.0,37,0.00,,,0.00,VWS V14.01,2013-03-23 23:22:00,
2013-03-23 19:27:00,49.5,25.0,29.96,ENE,57,0.0,0.0,38,0.00,,,0.00,VWS V14.01,2013-03-23 23:27:00,
2013-03-23 19:32:00,49.5,25.0,29.96,ENE,67,3.0,0.0,38,0.00,,,0.00,VWS V14.01,2013-03-23 23:32:00,
2013-03-23 19:37:00,49.4,24.9,29.96,NE,56,4.0,0.0,38,0.00,,,0.00,VWS V14.01,2013-03-23 23:37:00,
2013-03-23 19:42:00,49.4,24.9,29.96,ENE,59,2.0,0.0,38,0.00,,,0.00,VWS V14.01,2013-03-23 23:42:00,
2013-03-23 19:47:00,49.2,24.7,29.96,ENE,65,3.0,0.0,38,0.00,,,0.00,VWS V14.01,2013-03-23 23:47:00,
2013-03-23 19:52:00,49.1,24.6,29.95,NNE,32,1.0,0.0,38,0.00,,,0.00,VWS V14.01,2013-03-23 23:52:00,
2013-03-23 19:57:00,49.1,24.6,29.95,ENE,67,0.0,0.0,38,0.00,,,0.00,VWS V14.01,2013-03-23 23:57:00,
2013-03-23 20:02:00,48.9,24.4,29.95,ENE,65,1.0,0.0,38,0.00,,,0.00,VWS V14.01,2013-03-24 00:02:00,
2013-03-23 20:07:00,48.8,24.3,29.95,ENE,59,5.0,0.0,38,0.00,,,0.00,VWS V14.01,2013-03-24 00:07:00,
2013-03-23 20:12:00,48.8,23.7,29.95,ENE,69,2.0,0.0,37,0.00,,,0.00,VWS V14.01,2013-03-24 00:12:00,
2013-03-23 20:17:00,48.6,23.5,29.95,ENE,62,3.0,0.0,37,0.00,,,0.00,VWS V14.01,2013-03-24 00:17:00,
2013-03-23 20:22:00,48.5,23.4,29.95,ENE,59,2.0,0.0,37,0.00,,,0.00,VWS V14.01,2013-03-24 00:22:00,
2013-03-23 20:27:00,48.3,23.3,29.95,ENE,67,0.0,0.0,37,0.00,,,0.00,VWS V14.01,2013-03-24 00:27:00,
2013-03-23 20:33:00,48.2,23.2,29.95,ENE,71,0.0,0.0,37,0.00,,,0.00,VWS V14.01,2013-03-24 00:33:00,
2013-03-23 20:38:00,47.9,22.9,29.94,ENE,59,1.0,0.0,37,0.00,,,0.00,VWS V14.01,2013-03-24 00:38:00,
2013-03-23 20:43:00,47.7,22.7,29.94,NE,50,3.0,0.0,37,0.00,,,0.00,VWS V14.01,2013-03-24 00:43:00,
2013-03-23 20:48:00,47.6,22.6,29.94,ENE,67,3.0,0.0,37,0.00,,,0.00,VWS V14.01,2013-03-24 00:48:00,
2013-03-23 20:53:00,47.4,21.8,29.94,East,84,2.0,0.0,36,0.00,,,0.00,VWS V14.01,2013-03-24 00:53:00,
2013-03-23 20:58:00,47.3,22.4,29.94,ENE,65,3.0,0.0,37,0.00,,,0.00,VWS V14.01,2013-03-24 00:58:00,
2013-03-23 21:03:00,47.1,22.2,29.94,East,80,1.0,0.0,37,0.00,,,0.00,VWS V14.01,2013-03-24 01:03:00,
2013-03-23 21:08:00,47.0,22.1,29.94,East,82,0.0,0.0,37,0.00,,,0.00,VWS V14.01,2013-03-24 01:08:00,
2013-03-23 21:15:00,46.7,21.8,29.94,ENE,67,4.0,0.0,37,0.00,,,0.00,VWS V14.01,2013-03-24 01:15:00,
2013-03-23 21:23:00,46.5,22.3,29.92,ENE,65,3.0,0.0,38,0.00,,,0.00,VWS V14.01,2013-03-24 01:23:00,
2013-03-23 21:28:00,46.4,21.6,29.92,ENE,67,5.0,0.0,37,0.00,,,0.00,VWS V14.01,2013-03-24 01:28:00,
2013-03-23 21:33:00,46.4,21.6,29.92,ENE,60,4.0,0.0,37,0.00,,,0.00,VWS V14.01,2013-03-24 01:33:00,
2013-03-23 21:38:00,46.2,21.4,29.92,ENE,65,3.0,0.0,37,0.00,,,0.00,VWS V14.01,2013-03-24 01:38:00,
2013-03-23 21:43:00,46.1,21.9,29.92,ENE,60,5.0,0.0,38,0.00,,,0.00,VWS V14.01,2013-03-24 01:43:00,
2013-03-23 21:48:00,46.1,21.9,29.92,ENE,57,7.0,0.0,38,0.00,,,0.00,VWS V14.01,2013-03-24 01:48:00,
2013-03-23 21:53:00,46.0,21.2,29.92,ENE,60,3.0,0.0,37,0.00,,,0.00,VWS V14.01,2013-03-24 01:53:00,
2013-03-23 21:58:00,45.8,21.0,29.92,ENE,70,4.0,0.0,37,0.00,,,0.00,VWS V14.01,2013-03-24 01:58:00,
2013-03-23 22:03:00,45.8,21.0,29.92,East,86,3.0,0.0,37,0.00,,,0.00,VWS V14.01,2013-03-24 02:03:00,
2013-03-23 22:08:00,45.7,21.6,29.92,East,82,9.0,0.0,38,0.00,,,0.00,VWS V14.01,2013-03-24 02:08:00,
2013-03-23 22:13:00,45.4,21.3,29.92,NE,55,3.0,0.0,38,0.00,,,0.00,VWS V14.01,2013-03-24 02:13:00,
2013-03-23 22:18:00,45.2,21.1,29.92,ENE,69,5.0,0.0,38,0.00,,,0.00,VWS V14.01,2013-03-24 02:18:00,
2013-03-23 22:23:00,45.1,21.6,29.91,ENE,71,3.0,0.0,39,0.00,,,0.00,VWS V14.01,2013-03-24 02:23:00,
2013-03-23 22:28:00,44.9,21.5,29.91,ENE,65,7.0,0.0,39,0.00,,,0.00,VWS V14.01,2013-03-24 02:28:00,
2013-03-23 22:33:00,44.8,21.4,29.91,ENE,59,7.0,0.0,39,0.00,,,0.00,VWS V14.01,2013-03-24 02:33:00,
2013-03-23 22:38:00,44.6,21.8,29.89,NE,50,6.0,0.0,40,0.00,,,0.00,VWS V14.01,2013-03-24 02:38:00,
2013-03-23 22:43:00,44.5,21.7,29.89,NE,38,6.0,0.0,40,0.00,,,0.00,VWS V14.01,2013-03-24 02:43:00,
2013-03-23 22:48:00,44.5,21.7,29.89,NE,38,6.0,0.0,40,0.00,,,0.00,VWS V14.01,2013-03-24 02:48:00,
2013-03-23 22:52:00,42.6,22.2,29.86,ENE,61,4.0,0.0,44,0.00,,,0.00,VWS V14.01,2013-03-24 02:52:00,
2013-03-23 22:53:00,44.3,22.1,29.89,ENE,61,7.0,0.0,41,0.00,,,0.00,VWS V14.01,2013-03-24 02:53:00,
2013-03-23 22:58:00,44.1,21.9,29.89,ENE,71,3.0,0.0,41,0.00,,,0.00,VWS V14.01,2013-03-24 02:58:00,
2013-03-23 23:00:00,42.5,22.1,29.85,ENE,58,4.0,0.0,44,0.00,,,0.00,VWS V14.01,2013-03-24 03:00:00,
2013-03-23 23:03:00,43.9,21.7,29.89,NE,46,9.0,0.0,41,0.00,,,0.00,VWS V14.01,2013-03-24 03:03:00,
2013-03-23 23:08:00,43.8,21.6,29.88,NE,40,6.0,0.0,41,0.00,,,0.00,VWS V14.01,2013-03-24 03:08:00,
2013-03-23 23:10:00,42.3,22.0,29.85,NE,50,3.0,0.0,44,0.00,,,0.00,VWS V14.01,2013-03-24 03:10:00,
2013-03-23 23:13:00,43.6,21.5,29.88,ENE,71,3.0,0.0,41,0.00,,,0.00,VWS V14.01,2013-03-24 03:13:00,
2013-03-23 23:18:00,43.5,21.4,29.88,NE,55,6.0,0.0,41,0.00,,,0.00,VWS V14.01,2013-03-24 03:18:00,
2013-03-23 23:20:00,42.2,21.9,29.86,ENE,61,2.0,0.0,44,0.00,,,0.00,VWS V14.01,2013-03-24 03:20:00,
2013-03-23 23:23:00,43.3,21.8,29.86,ENE,69,8.0,0.0,42,0.00,,,0.00,VWS V14.01,2013-03-24 03:23:00,
2013-03-23 23:28:00,43.2,21.7,29.86,NE,55,4.0,0.0,42,0.00,,,0.00,VWS V14.01,2013-03-24 03:28:00,
2013-03-23 23:30:00,42.1,22.3,29.85,ENE,75,3.0,0.0,45,0.00,,,0.00,VWS V14.01,2013-03-24 03:30:00,
2013-03-23 23:33:00,43.1,22.1,29.86,NE,53,4.0,0.0,43,0.00,,,0.00,VWS V14.01,2013-03-24 03:33:00,
2013-03-23 23:38:00,42.9,22.0,29.87,ENE,58,4.0,0.0,43,0.00,,,0.00,VWS V14.01,2013-03-24 03:38:00,
2013-03-23 23:40:00,41.9,22.6,29.85,ENE,70,3.0,0.0,46,0.00,,,0.00,VWS V14.01,2013-03-24 03:40:00,
2013-03-23 23:43:00,42.8,22.4,29.87,ENE,61,4.0,0.0,44,0.00,,,0.00,VWS V14.01,2013-03-24 03:43:00,
2013-03-23 23:48:00,42.8,22.4,29.87,ENE,62,4.0,0.0,44,0.00,,,0.00,VWS V14.01,2013-03-24 03:48:00,
2013-03-23 23:50:00,41.8,22.5,29.84,ENE,63,2.0,0.0,46,0.00,,,0.00,VWS V14.01,2013-03-24 03:50:00,
2013-03-23 23:53:00,42.6,22.2,29.86,ENE,68,5.0,0.0,44,0.00,,,0.00,VWS V14.01,2013-03-24 03:53:00,
2013-03-23 23:58:00,41.8,22.0,29.84,ENE,60,2.0,0.0,45,0.00,,,0.00,VWS V14.01,2013-03-24 03:58:00,